DAL1820 KMSP-KFSD

Flight info

Callsign DAL1820
Flight time 0h 38m
Altitude 20000
Route SCHEP1 RXANN FSD
Aircraft A319/M-SDE3FGHIRWY/LB1

Departure

Time 2026-05-06 01:04
Airport Minneapolis–Saint Paul International Airport / Wold–Chamberlain Field (KMSP)

Arrival

Time 2026-05-06 01:43
Airport Sioux Falls Regional Airport (KFSD)
Time Latitude Longitude Altitude Speed Heading
2026-05-06 00:32 44.88352 -93.21284 836 ft 0 kts 205°
2026-05-06 00:35 44.88353 -93.21284 836 ft 0 kts 205°
2026-05-06 00:52 44.88360 -93.21280 826 ft 2 kts 203°
2026-05-06 00:52 44.88375 -93.21270 830 ft 2 kts 208°
2026-05-06 00:52 44.88390 -93.21258 831 ft 2 kts 246°
2026-05-06 00:52 44.88389 -93.21242 828 ft 1 kts 301°
2026-05-06 00:53 44.88389 -93.21241 836 ft 0 kts 300°
2026-05-06 00:55 44.88391 -93.21245 836 ft 2 kts 300°
2026-05-06 00:56 44.88404 -93.21286 830 ft 7 kts 294°
2026-05-06 00:56 44.88431 -93.21373 833 ft 11 kts 293°
2026-05-06 00:56 44.88462 -93.21476 832 ft 11 kts 293°
2026-05-06 00:56 44.88490 -93.21550 835 ft 0 kts 317°
2026-05-06 00:57 44.88492 -93.21553 835 ft 1 kts 317°
2026-05-06 00:57 44.88509 -93.21585 837 ft 9 kts 298°
2026-05-06 00:57 44.88528 -93.21671 831 ft 9 kts 284°
2026-05-06 00:57 44.88543 -93.21752 838 ft 8 kts 256°
2026-05-06 00:58 44.88500 -93.21824 834 ft 12 kts 225°
2026-05-06 00:58 44.88441 -93.21909 830 ft 12 kts 226°
2026-05-06 00:58 44.88379 -93.21994 838 ft 7 kts 224°
2026-05-06 00:58 44.88335 -93.22035 836 ft 9 kts 189°
2026-05-06 00:59 44.88284 -93.21972 834 ft 12 kts 119°
2026-05-06 00:59 44.88235 -93.21855 832 ft 16 kts 121°
2026-05-06 00:59 44.88172 -93.21710 833 ft 19 kts 122°
2026-05-06 00:59 44.88098 -93.21543 831 ft 20 kts 121°
2026-05-06 01:00 44.88026 -93.21373 835 ft 20 kts 121°
2026-05-06 01:00 44.87955 -93.21206 834 ft 20 kts 122°
2026-05-06 01:00 44.87883 -93.21043 832 ft 19 kts 122°
2026-05-06 01:00 44.87813 -93.20882 832 ft 19 kts 121°
2026-05-06 01:01 44.87745 -93.20719 835 ft 19 kts 120°
2026-05-06 01:01 44.87679 -93.20555 833 ft 19 kts 118°
2026-05-06 01:01 44.87602 -93.20400 832 ft 19 kts 125°
2026-05-06 01:01 44.87538 -93.20248 834 ft 17 kts 121°
2026-05-06 01:02 44.87486 -93.20127 833 ft 13 kts 123°
2026-05-06 01:02 44.87442 -93.20081 829 ft 0 kts 173°
2026-05-06 01:03 44.87429 -93.20081 832 ft 5 kts 185°
2026-05-06 01:03 44.87379 -93.20135 828 ft 12 kts 242°
2026-05-06 01:03 44.87402 -93.20243 830 ft 13 kts 304°
2026-05-06 01:03 44.87464 -93.20386 829 ft 35 kts 301°
2026-05-06 01:04 44.87729 -93.20991 832 ft 107 kts 302°
2026-05-06 01:04 44.88143 -93.21923 873 ft 149 kts 304°
2026-05-06 01:04 44.88699 -93.23123 1350 ft 158 kts 300°
2026-05-06 01:04 44.89147 -93.24551 2051 ft 162 kts 282°
2026-05-06 01:05 44.88947 -93.26135 2741 ft 173 kts 246°
2026-05-06 01:05 44.88141 -93.27444 3438 ft 180 kts 228°
2026-05-06 01:05 44.87270 -93.28800 3904 ft 197 kts 238°
2026-05-06 01:05 44.86433 -93.30463 4354 ft 220 kts 240°
2026-05-06 01:06 44.85525 -93.32342 4860 ft 244 kts 239°
2026-05-06 01:06 44.84523 -93.34383 5595 ft 258 kts 239°
2026-05-06 01:06 44.83473 -93.36459 6603 ft 262 kts 238°
2026-05-06 01:06 44.82397 -93.38541 7607 ft 264 kts 238°
2026-05-06 01:07 44.81298 -93.40640 8597 ft 268 kts 237°
2026-05-06 01:07 44.80179 -93.42751 9592 ft 271 kts 237°
2026-05-06 01:07 44.79037 -93.44896 10381 ft 281 kts 237°
2026-05-06 01:07 44.77819 -93.47191 10724 ft 305 kts 237°
2026-05-06 01:08 44.76503 -93.49672 11082 ft 326 kts 236°
2026-05-06 01:08 44.75125 -93.52259 11771 ft 334 kts 236°
2026-05-06 01:08 44.73718 -93.54887 12594 ft 338 kts 236°
2026-05-06 01:08 44.72296 -93.57536 13410 ft 342 kts 236°
2026-05-06 01:09 44.70853 -93.60224 14170 ft 346 kts 236°
2026-05-06 01:09 44.69402 -93.62936 14898 ft 349 kts 236°
2026-05-06 01:09 44.67952 -93.65693 15622 ft 352 kts 236°
2026-05-06 01:09 44.66507 -93.68477 16355 ft 354 kts 237°
2026-05-06 01:10 44.65054 -93.71292 17088 ft 357 kts 237°
2026-05-06 01:10 44.63598 -93.74127 17813 ft 360 kts 237°
2026-05-06 01:10 44.62122 -93.76988 18487 ft 363 kts 237°
2026-05-06 01:10 44.60630 -93.79855 19157 ft 364 kts 237°
2026-05-06 01:11 44.59137 -93.82707 19769 ft 362 kts 237°
2026-05-06 01:11 44.57652 -93.85542 19975 ft 359 kts 238°
2026-05-06 01:11 44.56161 -93.88404 20033 ft 371 kts 238°
2026-05-06 01:11 44.54624 -93.91357 20037 ft 377 kts 238°
2026-05-06 01:12 44.53068 -93.94332 20039 ft 379 kts 237°
2026-05-06 01:12 44.51502 -93.97306 20040 ft 379 kts 237°
2026-05-06 01:12 44.49957 -94.00241 20042 ft 379 kts 237°
2026-05-06 01:12 44.48372 -94.03249 20045 ft 379 kts 237°
2026-05-06 01:13 44.46810 -94.06225 20043 ft 379 kts 237°
2026-05-06 01:13 44.45249 -94.09191 20042 ft 379 kts 237°
2026-05-06 01:13 44.43705 -94.12121 20044 ft 379 kts 237°
2026-05-06 01:13 44.42140 -94.15084 20044 ft 379 kts 237°
2026-05-06 01:14 44.39015 -94.21025 20043 ft 379 kts 237°
2026-05-06 01:14 44.37450 -94.23987 20040 ft 378 kts 237°
2026-05-06 01:14 44.35882 -94.26943 20041 ft 378 kts 237°
2026-05-06 01:15 44.34310 -94.29894 20037 ft 378 kts 237°
2026-05-06 01:15 44.32742 -94.32836 20035 ft 378 kts 237°
2026-05-06 01:15 44.31171 -94.35782 20037 ft 378 kts 237°
2026-05-06 01:15 44.29602 -94.38726 20032 ft 378 kts 237°
2026-05-06 01:16 44.28035 -94.41670 20033 ft 377 kts 237°
2026-05-06 01:16 44.26469 -94.44613 20034 ft 377 kts 237°
2026-05-06 01:16 44.24904 -94.47551 20033 ft 377 kts 237°
2026-05-06 01:16 44.23342 -94.50481 20031 ft 377 kts 237°
2026-05-06 01:17 44.21776 -94.53412 20026 ft 377 kts 237°
2026-05-06 01:17 44.20209 -94.56341 20032 ft 377 kts 237°
2026-05-06 01:17 44.18645 -94.59261 20032 ft 377 kts 237°
2026-05-06 01:17 44.17076 -94.62184 20034 ft 376 kts 237°
2026-05-06 01:18 44.15507 -94.65106 20036 ft 376 kts 237°
2026-05-06 01:18 44.13938 -94.68026 20042 ft 376 kts 237°
2026-05-06 01:18 44.12369 -94.70937 20046 ft 376 kts 237°
2026-05-06 01:18 44.10818 -94.73811 20039 ft 376 kts 237°
2026-05-06 01:19 44.09248 -94.76720 20039 ft 376 kts 237°
2026-05-06 01:19 44.07681 -94.79629 20053 ft 375 kts 237°
2026-05-06 01:19 44.06119 -94.82529 20052 ft 375 kts 237°
2026-05-06 01:19 44.04552 -94.85430 20051 ft 375 kts 237°
2026-05-06 01:20 44.02983 -94.88328 20054 ft 375 kts 237°
2026-05-06 01:20 44.01414 -94.91224 20054 ft 375 kts 237°
2026-05-06 01:20 43.99861 -94.94116 20001 ft 370 kts 239°
2026-05-06 01:20 43.98494 -94.97028 19980 ft 350 kts 243°
2026-05-06 01:21 43.97319 -94.99885 19987 ft 332 kts 245°
2026-05-06 01:21 43.96266 -95.02634 19989 ft 314 kts 246°
2026-05-06 01:21 43.95281 -95.05253 19983 ft 296 kts 246°
2026-05-06 01:21 43.94340 -95.07736 19995 ft 295 kts 246°
2026-05-06 01:22 43.93353 -95.10314 19991 ft 307 kts 245°
2026-05-06 01:22 43.92332 -95.12934 19988 ft 310 kts 245°
2026-05-06 01:22 43.91293 -95.15561 19986 ft 311 kts 245°
2026-05-06 01:22 43.90243 -95.18188 19990 ft 311 kts 245°
2026-05-06 01:23 43.89189 -95.20810 19964 ft 312 kts 245°
2026-05-06 01:23 43.88121 -95.23464 19237 ft 319 kts 244°
2026-05-06 01:23 43.87023 -95.26191 18418 ft 328 kts 244°
2026-05-06 01:23 43.85905 -95.28972 17475 ft 333 kts 244°
2026-05-06 01:24 43.84771 -95.31795 16518 ft 338 kts 244°
2026-05-06 01:24 43.83618 -95.34660 15585 ft 343 kts 244°
2026-05-06 01:24 43.82452 -95.37548 14644 ft 344 kts 244°
2026-05-06 01:24 43.81285 -95.40430 13754 ft 342 kts 244°
2026-05-06 01:25 43.80127 -95.43289 12758 ft 340 kts 244°
2026-05-06 01:25 43.78975 -95.46129 11810 ft 336 kts 244°
2026-05-06 01:25 43.77845 -95.48912 11111 ft 327 kts 244°
2026-05-06 01:25 43.76745 -95.51618 10431 ft 318 kts 244°
2026-05-06 01:26 43.75686 -95.54218 9747 ft 311 kts 244°
2026-05-06 01:26 43.74634 -95.56804 9002 ft 305 kts 244°
2026-05-06 01:26 43.73605 -95.59335 8320 ft 299 kts 244°
2026-05-06 01:26 43.72596 -95.61817 7661 ft 293 kts 244°
2026-05-06 01:27 43.71607 -95.64250 7085 ft 286 kts 244°
2026-05-06 01:27 43.70662 -95.66566 6748 ft 271 kts 244°
2026-05-06 01:27 43.69752 -95.68788 6378 ft 259 kts 244°
2026-05-06 01:27 43.68885 -95.70898 6036 ft 247 kts 244°
2026-05-06 01:28 43.68058 -95.72917 5689 ft 236 kts 244°
2026-05-06 01:28 43.67257 -95.74879 5140 ft 236 kts 245°
2026-05-06 01:28 43.66446 -95.76875 4484 ft 241 kts 244°
2026-05-06 01:28 43.65627 -95.78881 4023 ft 237 kts 244°
2026-05-06 01:29 43.64835 -95.80816 3865 ft 227 kts 245°
2026-05-06 01:29 43.64086 -95.82727 3798 ft 225 kts 249°
2026-05-06 01:29 43.63471 -95.84691 3676 ft 221 kts 252°
2026-05-06 01:29 43.62897 -95.86662 3927 ft 223 kts 252°
2026-05-06 01:30 43.62325 -95.88657 4035 ft 224 kts 252°
2026-05-06 01:30 43.61752 -95.90651 3942 ft 223 kts 252°
2026-05-06 01:30 43.61180 -95.92629 3848 ft 221 kts 252°
2026-05-06 01:30 43.60606 -95.94604 3822 ft 221 kts 252°
2026-05-06 01:31 43.60032 -95.96574 3818 ft 222 kts 252°
2026-05-06 01:31 43.59456 -95.98543 3813 ft 221 kts 252°
2026-05-06 01:31 43.58882 -96.00510 3812 ft 221 kts 252°
2026-05-06 01:31 43.58318 -96.02448 3810 ft 220 kts 251°
2026-05-06 01:32 43.57747 -96.04411 3813 ft 220 kts 252°
2026-05-06 01:32 43.57173 -96.06370 3808 ft 221 kts 252°
2026-05-06 01:32 43.56598 -96.08328 3811 ft 221 kts 252°
2026-05-06 01:32 43.56011 -96.10327 3808 ft 229 kts 251°
2026-05-06 01:33 43.55407 -96.12378 3810 ft 234 kts 251°
2026-05-06 01:33 43.54791 -96.14464 3808 ft 236 kts 252°
2026-05-06 01:33 43.54174 -96.16558 3809 ft 236 kts 252°
2026-05-06 01:33 43.53553 -96.18656 3809 ft 236 kts 251°
2026-05-06 01:34 43.52932 -96.20753 3808 ft 237 kts 251°
2026-05-06 01:34 43.52309 -96.22858 3811 ft 239 kts 251°
2026-05-06 01:34 43.51659 -96.25068 3809 ft 254 kts 251°
2026-05-06 01:34 43.50991 -96.27334 3811 ft 257 kts 251°
2026-05-06 01:35 43.50315 -96.29616 3813 ft 258 kts 251°
2026-05-06 01:35 43.49639 -96.31896 3811 ft 257 kts 251°
2026-05-06 01:35 43.48961 -96.34175 3809 ft 257 kts 251°
2026-05-06 01:35 43.48284 -96.36448 3814 ft 256 kts 251°
2026-05-06 01:36 43.47608 -96.38720 3815 ft 256 kts 251°
2026-05-06 01:36 43.46932 -96.40990 3816 ft 257 kts 251°
2026-05-06 01:36 43.46257 -96.43259 3816 ft 253 kts 251°
2026-05-06 01:36 43.45610 -96.45424 3812 ft 239 kts 251°
2026-05-06 01:37 43.44984 -96.47516 3818 ft 234 kts 251°
2026-05-06 01:37 43.44368 -96.49576 3819 ft 232 kts 251°
2026-05-06 01:37 43.43754 -96.51627 3816 ft 232 kts 251°
2026-05-06 01:37 43.43141 -96.53681 3814 ft 232 kts 251°
2026-05-06 01:38 43.42526 -96.55734 3817 ft 232 kts 251°
2026-05-06 01:38 43.41923 -96.57761 3793 ft 232 kts 253°
2026-05-06 01:38 43.41700 -96.59876 3591 ft 216 kts 279°
2026-05-06 01:38 43.42126 -96.61733 3532 ft 196 kts 302°
2026-05-06 01:39 43.42984 -96.63078 3438 ft 182 kts 323°
2026-05-06 01:39 43.44048 -96.63953 3331 ft 177 kts 330°
2026-05-06 01:39 43.44766 -96.64519 3265 ft 175 kts 329°
2026-05-06 01:39 43.46158 -96.65628 3180 ft 173 kts 330°
2026-05-06 01:40 43.46850 -96.66177 3131 ft 173 kts 329°
2026-05-06 01:40 43.48234 -96.67277 3101 ft 171 kts 330°
2026-05-06 01:40 43.49260 -96.68089 2872 ft 166 kts 330°
2026-05-06 01:40 43.49914 -96.68585 2728 ft 157 kts 332°
2026-05-06 01:41 43.50857 -96.69206 2520 ft 144 kts 334°
2026-05-06 01:41 43.52599 -96.70311 2086 ft 127 kts 335°
2026-05-06 01:41 43.53394 -96.70821 1964 ft 126 kts 334°
2026-05-06 01:42 43.54183 -96.71346 1985 ft 125 kts 334°
2026-05-06 01:42 43.54969 -96.71866 1890 ft 125 kts 335°
2026-05-06 01:42 43.55760 -96.72358 1833 ft 124 kts 335°
2026-05-06 01:42 43.56554 -96.72860 1670 ft 126 kts 336°
2026-05-06 01:43 43.57351 -96.73348 1487 ft 125 kts 334°
2026-05-06 01:43 43.58077 -96.73806 1436 ft 97 kts 334°
2026-05-06 01:43 43.58529 -96.74105 1436 ft 47 kts 335°
2026-05-06 01:43 43.58786 -96.74268 1439 ft 37 kts 335°
2026-05-06 01:44 43.58965 -96.74359 1440 ft 21 kts 21°
2026-05-06 01:44 43.58966 -96.74216 1437 ft 15 kts 152°
2026-05-06 01:44 43.58873 -96.74159 1437 ft 14 kts 155°
2026-05-06 01:44 43.58782 -96.74101 1437 ft 15 kts 155°
2026-05-06 01:45 43.58689 -96.74040 1437 ft 15 kts 154°
2026-05-06 01:45 43.58597 -96.73979 1437 ft 15 kts 154°
2026-05-06 01:45 43.58502 -96.73919 1436 ft 15 kts 155°
2026-05-06 01:45 43.58404 -96.73857 1436 ft 16 kts 155°
2026-05-06 01:46 43.58305 -96.73794 1436 ft 16 kts 155°
2026-05-06 01:46 43.58197 -96.73724 1435 ft 19 kts 154°
2026-05-06 01:46 43.58078 -96.73648 1434 ft 19 kts 155°
2026-05-06 01:46 43.57978 -96.73553 1434 ft 13 kts 94°
2026-05-06 01:47 43.58000 -96.73504 1434 ft 6 kts 60°
2026-05-06 01:47 43.57999 -96.73460 1433 ft 8 kts 106°
2026-05-06 01:47 43.58009 -96.73378 1433 ft 0 kts 46°
2026-05-06 01:47 43.58010 -96.73376 1433 ft 1 kts 48°
2026-05-06 01:48 43.58013 -96.73371 1433 ft 0 kts 48°